Погода в Муезерском

Россия / Республика Карелия     63°57′41″N   31°59′52″E
темп.,
°C
ветер,
м/с
пор.,
м/с
влажн.,
%
обл.,
%
осадки,
мм/ч
давл.,
гПа
погр.,
м
15 июня, вт
вт1500:00+15ююз61455100 0.0 1006689
03:00+13ююз61463100 0.0 1004684
06:00+14ю71560100 0.0 10011024
09:00+14ююз81867100 0.3 9971207
12:00+13ююз101979100 0.8 9961968
15:00+11зюз101680100 1.0 9981464
18:00+14зюз814625 0.2 10001679
21:00+13зюз6126363 0.3 10011291
16 июня, ср
ср1600:00+10зюз613715 0.0 1003859
03:00+8з411835 0.0 1005551
06:00+9зсз358037 0.0 1008497
09:00+12з356396 0.0 10091149
12:00+12зсз476713 0.8 10101012
15:00+14з585497 1.6 10111811
18:00+15зсз683362 0.1 10112302
21:00+12з48455 0.1 1013933
17 июня, чт
чт1700:00+9з411531 0.0 1015453
03:00+5з28685 0.0 1018157
06:00+9з37594 0.0 1019277
09:00+14зюз454060 0.0 10201215
12:00+18зюз453220 0.0 10201677
15:00+20зюз463140 0.0 10191762
18:00+20зюз484097 0.0 10181656
21:00+19юз410525 0.0 1017577
18 июня, пт
пт1800:00+16юз4146739 0.0 1017430
03:00+13юз4117810 0.0 1017272
06:00+15юз41070100 0.0 1017355
09:00+19юз5946100 0.0 1016795
12:00+22юз693736 0.0 10141294
15:00+25зюз710345 0.0 10131983
18:00+25юз611375 0.0 10121897
21:00+22зюз613416 0.0 10111353
19 июня, сб
сб1900:00+20зюз71446100 0.0 10111345
03:00+17з61380100 0.0 10131183
06:00+14зсз4874100 0.1 1016717
09:00+17сз455343 0.1 10181111
12:00+20сз353766 0.0 10191677
15:00+22сз343062 0.0 10191975
18:00+22сз332795 0.0 10192105
21:00+18с2245100 0.0 102031